Coolidge Muni, Coolidge, AZ

2:41 AM MST on November 20, 2019 (GMT -0700)
Coolidge Muni, Coolidge

Weather History for KP08 - September, 2019

Change the Weather History Date:

Monday, September 23, 2019

  Actual Average (WUND) Record (WUND)
Temperature  
Mean Temperature 86 °F -  
Max Temperature 95 °F - - (-1)
Min Temperature 77 °F - - (-1)
Cooling Degree Days 21    
Growing Degree Days 36 (Base 50)    
Moisture  
Dew Point 61 °F    
Average Humidity 47    
Maximum Humidity 65    
Minimum Humidity 26    
Precipitation  
Precipitation 0.00 in - - ()
Sea Level Pressure  
Sea Level Pressure 29.94 in    
Wind  
Wind Speed 11 mph ()    
Max Wind Speed 26 mph    
Max Gust Speed 47 mph    
Visibility 9.9 miles    
Events Thunderstorm    
Averages and records for this station are not official NWS values.
T = Trace of Precipitation, MM = Missing Value Source: Averaged Metar Reports

Daily Weather History Graph

Daily Weather History Graph

Search for Another Location

Airport or City:

Astronomy

Sep. 23, 2019 Rise Set
Actual Time 6:14 AM MST 6:21 PM MST
Civil Twilight 5:49 AM MST 6:45 PM MST
Nautical Twilight 5:21 AM MST 7:14 PM MST
Astronomical Twilight 4:51 AM MST 7:43 PM MST
Moon 12:20 AM MST (9/23) 2:58 PM MST (9/23)
Length of Visible Light 12h 56m
Length of Day
12h 06m
Waning Crescent, 32% of the Moon is Illuminated
Sep 23
Waning Crescent
Sep 28
New
Oct 5
First Quarter
Oct 13
Full
Oct 21
Last Quarter

Hourly Weather History & Observations

Time (MST) Temp. Heat Index Dew Point Humidity Pressure Visibility Wind Dir Wind Speed Gust Speed Precip Events Conditions
12:15 AM 82.4 °F 83.9 °F 64.4 °F 54% 29.95 in 10.0 mi SSW 11.5 mph - N/A   Mostly Cloudy
12:35 AM 82.4 °F 83.9 °F 64.4 °F 54% 29.95 in 10.0 mi South 15.0 mph - N/A   Mostly Cloudy
12:50 AM 82.4 °F 83.9 °F 64.4 °F 54% 29.96 in 10.0 mi South 8.1 mph - N/A   Overcast
1:15 AM 82.4 °F 83.9 °F 64.4 °F 54% 29.96 in 10.0 mi South 9.2 mph - N/A   Overcast
1:35 AM 82.4 °F 83.9 °F 64.4 °F 54% 29.96 in 10.0 mi South 8.1 mph 13.8 mph N/A   Mostly Cloudy
1:55 AM 82.4 °F 84.6 °F 66.2 °F 58% 29.96 in 10.0 mi South 8.1 mph - N/A   Mostly Cloudy
2:15 AM 82.4 °F 84.6 °F 66.2 °F 58% 29.96 in 10.0 mi South 9.2 mph - N/A   Overcast
2:35 AM 82.4 °F 84.6 °F 66.2 °F 58% 29.96 in 10.0 mi SSW 9.2 mph - N/A   Overcast
2:55 AM 80.6 °F 82.7 °F 66.2 °F 61% 29.95 in 10.0 mi SSW 8.1 mph - N/A   Mostly Cloudy
3:15 AM 80.6 °F 82.7 °F 66.2 °F 61% 29.95 in 10.0 mi SSW 8.1 mph - N/A   Overcast
3:30 AM 80.6 °F 82.7 °F 66.2 °F 61% 29.96 in 10.0 mi SSW 8.1 mph - N/A   Overcast
3:55 AM 80.6 °F 82.7 °F 66.2 °F 61% 29.95 in 10.0 mi South 10.4 mph - N/A   Unknown
4:10 AM 80.6 °F 82.7 °F 66.2 °F 61% 29.95 in 10.0 mi South 12.7 mph - N/A   Unknown
4:35 AM 80.6 °F 82.7 °F 66.2 °F 61% 29.96 in 10.0 mi South 11.5 mph - N/A   Scattered Clouds
4:50 AM 80.6 °F 82.3 °F 64.4 °F 58% 29.96 in 10.0 mi South 11.5 mph - N/A   Partly Cloudy
5:15 AM 78.8 °F - 64.4 °F 61% 29.97 in 10.0 mi South 10.4 mph - N/A   Scattered Clouds
5:35 AM 78.8 °F - 64.4 °F 61% 29.97 in 10.0 mi South 8.1 mph - N/A   Scattered Clouds
5:55 AM 78.8 °F - 66.2 °F 65% 29.98 in 10.0 mi South 6.9 mph - N/A   Mostly Cloudy
6:15 AM 78.8 °F - 64.4 °F 61% 29.98 in 10.0 mi South 9.2 mph - N/A   Scattered Clouds
6:35 AM 78.8 °F - 66.2 °F 65% 29.98 in 10.0 mi South 9.2 mph - N/A   Scattered Clouds
6:55 AM 78.8 °F - 66.2 °F 65% 29.98 in 10.0 mi South 9.2 mph - N/A   Partly Cloudy
7:15 AM 78.8 °F - 66.2 °F 65% 29.99 in 10.0 mi South 9.2 mph - N/A Thunderstorm Clear
7:35 AM 80.6 °F 82.7 °F 66.2 °F 61% 30.00 in 10.0 mi South 8.1 mph - N/A   Clear
7:55 AM 82.4 °F 84.6 °F 66.2 °F 58% 30.00 in 10.0 mi South 8.1 mph - N/A   Clear
8:15 AM 82.4 °F 84.6 °F 66.2 °F 58% 30.00 in 10.0 mi South 10.4 mph - N/A   Clear
8:35 AM 82.4 °F 85.4 °F 68.0 °F 62% 30.00 in 10.0 mi South 12.7 mph - N/A   Clear
8:55 AM 84.2 °F 87.3 °F 68.0 °F 58% 30.01 in 10.0 mi SW 11.5 mph - N/A   Partly Cloudy
9:10 AM 84.2 °F 86.6 °F 66.2 °F 55% 30.01 in 10.0 mi SW 9.2 mph - N/A   Mostly Cloudy
9:35 AM 84.2 °F 85.6 °F 64.4 °F 51% 30.01 in 10.0 mi South 10.4 mph - N/A   Mostly Cloudy
9:55 AM 86.0 °F 87.3 °F 64.4 °F 48% 30.01 in 10.0 mi SSW 13.8 mph - N/A   Scattered Clouds
10:15 AM 87.8 °F 89.4 °F 64.4 °F 46% 30.00 in 10.0 mi SSW 11.5 mph 20.7 mph N/A   Partly Cloudy
10:30 AM 87.8 °F 89.4 °F 64.4 °F 46% 29.99 in 10.0 mi South 13.8 mph - N/A   Partly Cloudy
10:55 AM 89.6 °F 91.1 °F 64.4 °F 43% 29.97 in 10.0 mi SSW 12.7 mph - N/A   Partly Cloudy
11:10 AM 89.6 °F 91.1 °F 64.4 °F 43% 29.97 in 10.0 mi South 16.1 mph 23.0 mph N/A   Partly Cloudy
11:35 AM 91.4 °F 92.1 °F 62.6 °F 38% 29.96 in 10.0 mi SSW 16.1 mph 23.0 mph N/A   Clear
11:55 AM 91.4 °F 92.1 °F 62.6 °F 38% 29.94 in 10.0 mi SSW 12.7 mph 18.4 mph N/A   Clear
12:15 PM 93.2 °F 93.3 °F 60.8 °F 34% 29.93 in 10.0 mi SW 16.1 mph - N/A   Scattered Clouds
12:35 PM 91.4 °F 90.7 °F 59.0 °F 34% 29.92 in 10.0 mi SSW 11.5 mph 24.2 mph N/A   Partly Cloudy
12:55 PM 91.4 °F 90.7 °F 59.0 °F 34% 29.91 in 10.0 mi WSW 12.7 mph 19.6 mph N/A   Scattered Clouds
1:15 PM 93.2 °F 91.9 °F 57.2 °F 30% 29.90 in 10.0 mi SW 13.8 mph 24.2 mph N/A   Partly Cloudy
1:35 PM 95.0 °F 93.7 °F 57.2 °F 28% 29.90 in 10.0 mi SW 16.1 mph 24.2 mph N/A   Clear
1:55 PM 95.0 °F 94.4 °F 59.0 °F 30% 29.89 in 10.0 mi WSW 15.0 mph - N/A   Partly Cloudy
2:15 PM 95.0 °F 93.0 °F 55.4 °F 26% 29.89 in 10.0 mi SW 15.0 mph 23.0 mph N/A   Clear
2:35 PM 95.0 °F 93.0 °F 55.4 °F 26% 29.89 in 10.0 mi West 13.8 mph 21.9 mph N/A   Clear
2:55 PM 95.0 °F 93.0 °F 55.4 °F 26% 29.88 in 10.0 mi SW 13.8 mph - N/A   Clear
3:15 PM 95.0 °F 93.0 °F 55.4 °F 26% 29.88 in 10.0 mi SW 16.1 mph 24.2 mph N/A   Partly Cloudy
3:35 PM 82.4 °F 83.9 °F 64.4 °F 54% 29.91 in 1.5 mi NNW 26.5 mph 47.2 mph N/A   Haze
3:55 PM 80.6 °F 81.8 °F 62.6 °F 54% 29.90 in 9.0 mi North 20.7 mph 31.1 mph N/A   Clear
4:15 PM 82.4 °F 83.4 °F 62.6 °F 51% 29.90 in 10.0 mi North 19.6 mph 27.6 mph N/A   Clear
4:35 PM 86.0 °F 86.6 °F 62.6 °F 45% 29.89 in 10.0 mi North 16.1 mph 21.9 mph N/A   Partly Cloudy
4:55 PM 84.2 °F 85.0 °F 62.6 °F 48% 29.90 in 10.0 mi North 13.8 mph 20.7 mph N/A   Clear
5:15 PM 84.2 °F 84.4 °F 60.8 °F 45% 29.89 in 10.0 mi North 15.0 mph - N/A   Clear
5:35 PM 84.2 °F 83.8 °F 59.0 °F 42% 29.88 in 10.0 mi NNE 13.8 mph 23.0 mph N/A   Partly Cloudy
5:55 PM 84.2 °F 83.5 °F 57.2 °F 40% 29.87 in 10.0 mi North 13.8 mph 19.6 mph N/A   Partly Cloudy
6:15 PM 84.2 °F 83.5 °F 57.2 °F 40% 29.87 in 10.0 mi NNE 9.2 mph - N/A   Clear
6:35 PM 84.2 °F 83.0 °F 55.4 °F 37% 29.87 in 10.0 mi ENE 11.5 mph - N/A   Clear
6:55 PM 82.4 °F 81.7 °F 55.4 °F 39% 29.88 in 10.0 mi ENE 11.5 mph - N/A   Mostly Cloudy
7:15 PM 82.4 °F 81.7 °F 55.4 °F 39% 29.89 in 10.0 mi ENE 9.2 mph 15.0 mph N/A   Mostly Cloudy
7:35 PM 82.4 °F 81.4 °F 53.6 °F 37% 29.90 in 10.0 mi ENE 9.2 mph - N/A   Mostly Cloudy
7:55 PM 82.4 °F 81.4 °F 53.6 °F 37% 29.91 in 10.0 mi NE 13.8 mph - N/A   Mostly Cloudy
8:35 PM 78.8 °F - 55.4 °F 44% 29.96 in 10.0 mi North 11.5 mph - N/A   Scattered Clouds
8:55 PM 78.8 °F - 51.8 °F 39% 29.97 in 10.0 mi NNE 9.2 mph - N/A   Mostly Cloudy
9:15 PM 78.8 °F - 51.8 °F 39% 29.97 in 10.0 mi NNE 9.2 mph - N/A   Overcast
9:35 PM 78.8 °F - 50.0 °F 36% 29.95 in 10.0 mi NE 15.0 mph 20.7 mph N/A   Mostly Cloudy
9:55 PM 78.8 °F - 50.0 °F 36% 29.96 in 10.0 mi ENE 15.0 mph - N/A   Mostly Cloudy
10:15 PM 78.8 °F - 51.8 °F 39% 29.96 in 10.0 mi East 15.0 mph 24.2 mph N/A   Mostly Cloudy
10:35 PM 77.0 °F - 53.6 °F 44% 29.96 in 10.0 mi East 17.3 mph 25.3 mph N/A   Clear
10:55 PM 77.0 °F - 53.6 °F 44% 29.95 in 10.0 mi East 15.0 mph - N/A   Clear
11:15 PM 77.0 °F - 53.6 °F 44% 29.94 in 10.0 mi ESE 16.1 mph - N/A   Scattered Clouds
11:35 PM 77.0 °F - 53.6 °F 44% 29.94 in 10.0 mi East 12.7 mph 20.7 mph N/A   Mostly Cloudy
11:55 PM 77.0 °F - 51.8 °F 41% 29.93 in 10.0 mi ESE 16.1 mph - N/A   Mostly Cloudy